Dewpoint
50 51 51 51 51 51 52 51 51 51 51 51 50 50 50 50 50 50 51 51 51 51 51 51 51 51 51 51 51 51 53 48 45 42 42 38 52 58 57 56 56 56 58 48 42 40 37 35 33 30 22 12 17 19 24 24 21 19 16 14 8 2 -2 5 -0 4 8 4 12 13 12 12 10 12 11 12 33 38 51 54 58 60 61 61 63 63 65 68
50 50 50 50 51 51 51 51 51 51 51 50 50 50 50 50 50 50 50 51 51 51 51 51 51 51 51 51 51 51 50 46 42 41 40 50 55 55 57 58 58 56 59 38 38 37 34 33 32 30 21 15 14 15 23 22 23 17 14 12 6 2 9 8 8 8 7 13 14 13 11 12 11 12 10 11 20 22 34 52 54 57 60 62 62 64 66 67
50 49 50 50 50 50 51 51 50 50 50 50 50 50 50 50 51 51 51 51 51 51 51 51 51 51 51 52 52 52 49 43 41 41 38 57 55 57 58 60 58 58 52 34 35 34 31 30 30 26 18 14 7 18 18 22 22 16 16 12 6 10 12 13 9 13 16 16 14 12 11 11 12 11 11 11 15 22 32 39 53 55 60 62 63 64 66 66
50 49 49 50 51 51 50 50 50 50 50 50 50 50 50 50 51 51 50 50 51 51 51 51 51 51 52 52 53 51 47 42 32 33 40 59 60 58 55 59 59 56 49 35 32 31 29 30 27 22 16 13 11 19 11 23 17 15 15 10 7 14 7 14 14 17 16 16 14 13 13 11 11 10 10 13 11 25 34 39 44 57 61 61 61 63 65 66
49 50 50 49 50 50 50 50 50 50 49 49 50 50 50 50 50 50 50 50 50 50 51 51 51 51 52 52 53 49 45 24 29 32 48 65 64 61 57 60 58 49 43 37 35 32 30 28 25 20 15 10 12 14 8 21 14 21 17 9 16 17 7 17 17 17 17 16 15 15 12 10 11 10 9 7 10 10 24 31 47 52 60 61 62 64 65 65
49 49 49 49 49 50 50 49 49 50 49 49 51 51 50 50 50 50 50 50 50 50 50 50 51 51 52 52 49 47 40 -13 17 27 61 63 62 59 58 60 56 47 36 33 30 28 28 27 23 19 14 13 11 10 8 16 16 15 17 13 20 17 13 17 17 14 16 15 15 13 12 12 10 9 9 9 8 11 22 32 48 55 61 61 62 64 64 64
48 49 49 49 49 50 49 49 49 50 50 50 50 50 50 50 49 50 49 50 50 50 50 50 50 51 52 52 47 43 28 5 13 44 63 60 59 59 59 56 56 38 34 31 29 27 26 23 20 14 12 12 12 9 12 13 18 13 6 17 17 18 16 14 16 16 16 17 16 15 13 10 9 7 8 7 7 30 40 48 53 58 61 62 63 64 64 65
48 48 48 48 48 49 50 49 49 49 49 50 50 50 50 50 49 49 50 50 50 50 50 50 50 51 52 45 42 25 15 7 26 54 62 60 57 57 56 46 41 31 31 28 27 24 23 19 16 13 9 7 14 9 16 11 16 15 10 13 17 19 18 17 16 16 17 17 16 14 11 9 8 8 8 6 32 50 54 56 59 60 61 62 63 63 64 64
48 48 48 48 48 48 49 49 49 49 49 49 50 50 50 50 50 50 50 50 50 49 49 50 50 51 51 47 34 5 -1 22 44 54 57 53 49 51 46 40 36 28 26 25 23 21 19 17 13 10 3 4 15 8 18 9 9 13 13 14 18 15 15 14 15 16 14 14 12 11 9 9 7 10 8 25 45 53 58 58 60 60 60 61 62 63 64 64
48 48 48 48 48 48 48 48 49 49 49 49 49 49 49 50 49 49 49 50 49 49 49 50 50 50 48 40 28 8 21 27 51 54 54 47 46 46 40 35 33 28 24 22 21 19 16 12 11 10 15 3 13 7 17 10 14 19 15 13 14 15 17 18 15 13 12 11 10 9 8 7 7 8 7 46 52 57 57 58 59 59 59 60 61 63 63 63
48 48 48 48 48 48 48 48 48 49 48 49 49 49 49 49 49 49 49 49 50 49 49 49 50 50 44 28 11 -4 24 36 47 50 51 42 39 37 35 33 32 27 24 22 20 19 16 16 13 13 11 6 10 12 15 14 13 17 16 14 16 15 14 13 13 12 10 8 9 9 8 8 7 7 5 50 54 54 55 57 57 58 59 59 60 61 62 61
48 48 48 48 47 47 47 48 48 49 48 49 48 49 49 49 49 49 49 49 49 50 49 48 50 45 40 32 11 3 23 35 46 47 48 42 38 38 34 32 31 29 26 22 21 19 18 14 15 10 8 14 6 18 12 16 16 13 14 10 8 9 9 9 10 9 12 7 8 9 8 5 5 4 21 43 50 54 53 57 57 57 58 58 58 58 58 53
47 48 48 48 47 47 47 48 48 48 48 48 49 49 49 49 49 49 49 49 49 49 49 48 49 44 40 22 13 19 23 42 45 43 41 37 36 37 37 38 35 34 31 28 25 22 19 19 18 11 19 14 13 8 18 19 16 17 15 11 9 7 5 9 10 8 9 8 9 8 2 -2 -1 3 31 49 50 51 52 55 57 57 58 56 57 57 54 54
47 47 48 47 47 47 48 48 48 48 48 48 49 49 49 49 49 49 50 50 50 49 48 49 47 39 40 7 12 20 31 39 44 40 34 29 26 27 30 36 37 37 34 30 26 26 20 19 22 17 24 20 12 22 19 17 16 11 12 12 8 7 4 8 8 9 8 9 8 7 6 -1 1 12 35 46 51 48 48 54 56 57 58 57 57 57 54 56
47 47 47 47 47 47 47 48 48 48 48 48 49 49 48 49 50 51 50 51 50 49 48 51 46 44 33 14 27 39 41 32 32 33 34 28 25 26 28 35 37 37 35 31 26 26 22 20 22 20 18 24 24 18 16 14 14 12 9 7 6 6 5 8 9 9 7 8 8 5 8 -1 2 15 39 46 51 48 47 50 55 58 57 58 56 56 56 57
48 47 47 47 47 47 47 47 47 48 48 48 48 48 48 49 51 49 49 49 49 49 48 44 43 39 26 14 35 48 37 25 22 23 29 28 25 21 29 33 36 37 35 30 24 21 20 20 18 14 19 23 21 16 13 13 13 13 10 18 11 7 6 6 8 9 10 9 8 5 -1 -4 -1 13 38 44 50 49 46 49 54 56 58 58 58 56 56 56
47 47 47 47 46 46 47 47 47 47 47 48 48 48 48 49 51 49 50 50 48 47 46 33 41 42 28 25 33 31 32 33 37 38 31 29 26 27 31 34 32 33 33 28 26 19 17 18 21 22 21 19 18 17 15 15 14 14 10 13 12 9 8 3 9 9 10 9 6 9 4 5 5 14 37 44 47 46 46 48 52 54 57 59 58 57 56 57
47 47 47 46 46 47 47 47 47 48 47 48 48 47 46 49 52 50 50 48 46 44 44 45 38 40 28 25 13 21 32 32 37 38 36 35 31 30 30 30 31 31 27 22 22 15 15 15 16 14 18 22 22 18 16 10 15 16 18 16 11 10 9 6 5 9 8 9 8 10 10 7 5 7 23 41 44 44 45 47 50 53 53 57 58 58 57 56
46 46 47 46 46 46 47 47 47 47 47 49 48 48 50 51 50 46 44 44 43 40 35 41 34 9 -1 16 18 27 31 31 31 32 33 34 32 30 29 29 30 25 22 20 16 15 9 17 18 18 18 18 17 14 11 11 12 12 12 10 11 12 9 6 5 8 10 9 6 7 7 6 7 7 24 37 41 46 46 48 49 53 53 54 57 58 57 58
46 46 46 46 46 46 46 47 47 47 49 46 45 48 49 46 46 44 45 44 38 23 17 27 24 17 14 21 21 24 30 31 28 31 34 35 32 29 27 28 27 27 23 24 19 21 11 17 13 15 16 18 22 19 18 17 15 13 11 11 9 7 7 11 11 9 10 9 8 7 9 8 9 10 22 25 40 46 46 48 50 50 53 52 52 55 57 59
46 46 46 46 46 46 46 46 47 48 48 45 45 42 30 24 15 14 30 35 38 34 29 24 24 21 13 27 25 23 23 25 28 31 35 37 30 27 26 27 27 29 26 21 25 27 18 18 15 14 16 19 24 27 28 26 24 15 13 12 8 8 8 10 11 10 12 19 8 10 8 10 12 13 18 28 31 35 43 45 50 49 50 52 52 53 56 58
45 46 46 46 46 46 46 46 47 48 47 46 43 36 27 29 33 34 31 20 26 29 29 28 28 27 28 27 29 30 25 21 23 29 36 36 29 21 26 26 26 24 26 27 27 25 20 16 17 17 22 28 29 29 27 26 25 20 15 12 11 8 10 15 13 11 11 14 9 5 7 9 12 12 14 25 26 27 35 44 46 48 47 49 50 51 55 58
45 45 46 46 46 46 46 46 47 47 47 44 41 32 26 34 36 38 38 33 29 29 28 27 27 28 29 31 30 30 21 16 16 23 33 36 30 21 24 23 25 21 27 26 23 24 22 15 18 19 28 28 28 27 27 27 27 21 18 14 11 10 12 9 20 13 14 13 13 16 15 15 17 18 19 24 26 28 27 36 43 44 46 47 49 51 53 56
45 45 46 46 46 46 47 46 47 47 47 39 34 30 32 35 36 38 37 32 24 24 28 28 28 27 26 27 29 28 20 14 14 12 32 33 30 23 23 18 20 21 24 22 20 18 14 19 17 24 24 22 27 26 25 23 19 23 21 14 11 10 12 10 10 18 22 16 21 13 15 10 13 11 13 24 36 36 35 33 44 48 46 49 52 52 54 55
45 45 46 46 46 46 46 47 46 46 42 38 34 35 35 38 40 40 39 34 31 27 30 30 29 28 28 31 30 25 23 17 13 9 25 29 28 24 19 16 16 17 20 22 20 18 16 23 25 20 19 18 22 23 23 23 16 17 24 21 16 16 15 10 13 10 12 11 17 13 7 8 12 11 11 19 39 36 35 35 33 40 48 50 52 54 55 56
45 45 46 46 46 46 47 46 43 40 37 32 34 37 37 37 39 43 38 28 18 20 27 26 31 25 30 27 28 26 25 17 18 14 21 22 30 24 19 16 16 17 18 21 21 22 19 28 24 21 22 19 17 18 20 20 16 17 16 20 17 10 12 10 10 14 6 4 22 23 13 7 15 17 18 17 25 26 41 42 37 34 37 45 49 52 54 54
45 45 45 45 45 46 43 36 42 38 32 30 39 42 38 37 46 44 34 25 16 24 25 25 27 25 28 28 26 27 10 9 19 17 19 19 23 26 23 19 21 20 21 28 26 21 23 24 22 23 24 21 20 17 20 19 15 12 21 13 10 10 11 14 12 10 6 20 25 21 14 12 11 14 18 17 23 22 35 43 44 40 39 41 50 53 54 53
45 45 45 45 46 45 44 43 40 35 28 40 40 37 37 41 46 45 36 13 11 23 22 20 22 26 29 28 25 21 22 17 12 18 14 19 21 25 24 20 20 18 25 25 19 25 28 27 26 24 24 19 17 16 21 19 15 13 16 11 11 11 16 11 10 12 12 17 12 16 16 15 12 14 18 24 21 27 40 44 43 43 44 47 49 51 52 54
45 45 45 46 45 46 46 43 42 36 36 40 38 38 40 48 45 36 25 16 22 16 19 20 25 26 27 28 24 21 22 22 21 19 20 21 20 24 20 22 23 19 22 22 17 28 24 25 23 20 19 16 17 16 18 19 17 15 15 13 14 14 14 14 13 11 20 18 12 14 19 11 6 10 14 25 21 32 42 43 44 45 46 49 51 53 55 56
45 45 46 46 45 44 44 44 42 39 39 39 38 42 47 45 39 28 18 11 22 16 14 17 18 6 20 24 22 20 19 18 22 23 23 19 23 26 24 25 22 21 21 20 18 19 21 29 27 21 18 17 16 17 17 17 15 16 14 12 14 13 17 18 18 18 22 16 14 12 21 10 5 9 18 26 42 43 43 43 44 46 48 48 52 53 55 55
45 45 45 46 42 40 42 38 39 40 40 42 43 45 46 40 27 16 15 18 14 14 13 11 7 6 8 10 12 21 18 17 21 19 18 21 22 22 24 24 24 22 23 22 20 19 20 18 19 21 24 22 20 20 20 19 16 14 13 12 13 17 20 20 22 21 16 11 12 16 18 15 10 13 41 44 45 43 44 44 45 45 46 47 54 55 56 56
46 46 46 45 43 43 40 37 40 43 43 47 47 42 36 21 18 11 9 12 11 13 10 8 9 5 6 10 13 17 18 18 20 18 15 18 23 21 23 23 25 22 21 21 19 19 21 19 18 18 24 19 18 14 15 15 15 13 14 13 14 14 14 13 14 15 12 10 18 15 13 16 11 33 39 43 43 43 46 44 46 46 45 49 51 55 57 59
47 46 46 45 45 45 43 42 43 45 47 46 45 35 27 20 11 8 12 11 15 12 10 8 5 2 7 9 12 14 19 16 19 20 14 14 19 18 20 20 22 23 19 25 21 23 20 18 19 19 19 21 18 13 12 11 13 12 12 15 15 8 11 12 9 14 9 9 19 19 15 11 10 40 43 43 46 46 47 48 48 47 48 51 52 55 55 56
47 47 45 43 43 43 44 48 46 45 47 47 41 24 23 15 11 23 15 9 11 10 8 6 4 5 7 9 15 18 14 15 18 18 15 14 14 22 18 20 21 20 23 26 18 19 16 17 17 19 18 19 18 16 13 13 13 10 11 9 14 13 12 12 6 8 9 7 24 18 19 12 8 32 42 45 47 48 48 47 50 50 52 54 53 55 55 55
47 47 47 47 46 44 46 45 47 48 48 42 29 22 16 12 13 13 10 7 8 7 5 3 6 3 10 9 17 19 22 18 16 18 17 16 18 20 22 19 22 21 19 21 25 25 15 15 18 17 17 17 16 18 18 14 14 12 11 11 13 14 15 10 18 15 14 9 18 21 15 17 28 42 45 46 46 49 50 50 49 50 52 53 53 55 55 55
46 47 48 46 45 47 46 45 47 48 45 36 22 16 12 15 10 2 13 13 13 9 6 -1 1 2 9 9 13 14 25 25 17 19 18 16 16 16 19 19 20 19 23 19 26 18 16 17 15 17 18 17 15 16 16 16 16 16 12 14 13 17 16 20 25 33 24 15 11 20 19 18 39 40 41 44 44 48 49 51 52 52 52 54 54 54 54 54
44 47 47 48 47 47 47 46 45 47 44 33 18 13 17 12 12 12 20 17 15 10 8 -5 10 8 14 9 15 14 22 23 22 17 21 17 18 15 17 18 20 20 19 20 25 20 21 23 17 15 14 16 16 15 14 14 11 17 14 11 15 16 19 22 12 19 13 10 17 21 14 18 19 26 39 42 44 45 47 49 51 53 53 54 55 56 56 56
45 47 50 46 46 47 46 46 47 46 38 25 16 24 13 9 13 16 19 16 19 14 0 -1 11 8 14 13 12 14 18 20 25 18 18 18 23 18 18 21 22 21 19 18 21 28 20 17 16 13 11 14 17 15 13 14 15 13 14 16 15 16 14 18 18 15 15 14 10 14 13 14 18 28 37 40 42 45 47 50 51 52 53 53 55 55 57 58
45 46 41 46 47 46 47 48 48 36 27 17 17 12 10 11 15 12 23 20 19 15 5 6 8 15 15 15 15 14 16 21 27 21 14 20 18 30 21 18 23 21 20 20 21 28 27 19 18 17 15 15 14 14 16 13 14 15 18 15 15 22 22 17 17 14 17 12 15 19 17 14 30 39 41 41 43 45 47 48 49 51 53 54 53 54 54 56
45 44 40 50 46 48 48 48 44 28 21 12 12 11 17 12 14 22 22 22 20 14 15 14 14 16 16 18 15 17 15 15 21 26 22 27 18 31 28 27 26 23 24 23 22 24 25 29 20 18 17 16 14 16 13 13 15 14 15 15 16 24 22 20 28 15 15 13 11 11 13 28 39 41 41 43 44 46 48 48 50 51 53 53 53 53 54 55
47 42 42 50 46 49 49 47 36 14 13 22 15 16 11 19 26 24 26 27 23 22 20 20 21 19 22 21 16 15 17 14 18 20 22 26 19 29 31 28 28 28 26 24 22 27 24 25 20 22 15 14 13 19 25 22 18 15 15 15 11 17 17 13 15 15 17 15 15 13 12 33 41 42 44 43 45 47 49 49 50 51 51 52 53 55 55 56
43 36 41 50 49 49 47 34 31 31 24 19 22 21 26 34 25 26 26 28 25 23 26 23 24 23 23 22 20 18 18 17 21 24 24 27 27 27 34 36 33 30 26 25 25 29 31 29 24 19 18 19 22 26 28 28 25 23 19 16 11 19 20 19 13 18 17 13 17 20 18 31 44 43 45 46 47 49 50 49 49 50 51 52 53 54 53 53
41 41 47 49 50 48 44 31 33 29 31 32 31 28 27 27 27 28 26 26 24 24 25 22 23 23 23 21 21 20 20 23 20 22 31 25 34 35 35 35 37 31 28 32 26 32 30 25 22 19 18 20 24 27 28 28 28 23 22 26 22 19 22 21 20 26 20 21 16 14 16 32 45 45 46 48 47 47 48 49 48 49 49 50 49 50 50 51
40 42 44 46 50 48 41 24 23 24 30 31 31 29 27 28 27 24 23 26 25 27 25 26 23 21 24 24 25 23 25 26 22 23 28 29 33 35 36 35 36 33 30 31 28 34 24 27 24 20 19 20 23 24 25 29 27 27 30 35 31 28 28 30 29 30 17 22 18 15 14 31 44 47 46 46 45 45 45 45 47 47 48 48 48 49 49 51
42 42 41 43 46 45 34 32 31 24 30 33 31 30 31 28 29 29 29 26 28 26 28 26 26 26 24 25 25 23 24 26 31 27 30 31 34 35 36 37 36 37 41 41 37 34 26 31 26 19 19 18 20 19 19 23 26 32 34 33 32 28 31 29 17 18 17 23 19 17 24 40 45 45 45 45 44 43 44 45 45 45 45 46 46 47 48 50
36 32 38 40 41 40 35 38 36 32 29 32 30 31 29 29 27 29 29 28 26 27 27 26 22 24 24 23 24 23 23 26 27 32 28 33 32 34 36 36 38 39 43 45 43 35 33 37 35 35 30 21 23 29 34 33 30 24 31 34 35 34 35 38 27 18 15 24 22 21 29 39 41 43 43 44 44 43 43 44 45 45 45 45 46 46 47 47
37 31 32 29 37 36 35 32 31 30 28 34 26 32 30 30 28 27 29 29 26 26 27 24 21 26 28 25 29 26 24 24 24 28 31 30 33 34 35 35 36 39 43 39 41 37 36 32 37 40 35 31 32 33 33 32 31 34 33 36 34 37 39 36 24 25 37 25 19 39 41 40 40 42 42 43 43 43 43 44 43 44 45 45 46 46 46 46
30 36 35 39 32 25 27 28 31 32 33 33 32 36 30 28 29 28 28 26 25 27 29 24 21 20 21 23 29 27 27 27 27 29 30 31 32 36 35 35 38 43 38 37 39 40 34 28 36 38 35 35 34 33 33 32 32 34 35 38 38 37 39 36 33 37 40 22 17 38 42 41 41 42 42 43 43 43 43 43 43 43 44 45 45 44 44 44
37 35 35 38 29 31 34 36 37 33 32 30 30 32 30 28 28 28 29 30 25 28 23 27 26 19 19 21 28 27 30 25 29 33 34 34 34 36 37 36 37 38 40 39 38 41 39 32 37 37 36 36 35 35 36 32 33 34 36 35 37 40 40 40 40 40 37 38 39 39 41 41 40 40 40 41 42 43 42 43 43 43 43 43 43 43 44 44
33 31 30 37 36 34 36 36 36 32 29 33 27 32 27 29 28 28 27 28 28 28 23 28 24 20 21 21 25 28 30 31 29 28 34 34 33 34 36 38 35 38 37 40 41 44 40 32 38 34 34 35 36 36 35 32 35 36 35 35 36 37 37 38 39 40 40 39 41 42 40 37 38 40 40 41 41 42 42 42 41 42 43 43 43 42 43 43
41 42 40 28 28 31 33 34 30 28 25 28 26 31 32 27 30 28 28 25 28 28 25 26 23 27 24 22 25 25 23 28 29 30 30 29 32 32 32 35 28 34 37 40 40 41 40 34 38 36 30 32 36 35 35 36 36 35 36 36 36 36 36 37 35 39 39 38 39 40 37 36 38 39 40 41 41 40 40 40 40 41 41 41 41 40 41 41
43 42 41 33 24 30 27 30 29 27 22 30 32 31 32 28 27 26 29 27 24 22 25 24 28 27 28 30 27 27 27 26 26 26 25 24 26 29 27 26 27 31 30 35 40 41 40 35 33 32 29 31 35 35 35 34 35 29 32 34 35 36 37 37 38 39 41 40 37 34 34 37 38 39 38 39 39 39 39 39 40 40 40 40 40 39 39 40